Other Surface Observations
Issued by NWS Tucson, AZ

Home | Current Version | Previous Version | Text Only | Print | Product List | Glossary On
Versions: 1 2 3 4 5 6 7 8 9 10 11 12 13 14 15 16 17 18 19 20 21 22 23 24 25 26 27 28 29 30 31 32 33 34 35 36 37 38 39 40 41 42 43 44 45 46 47 48 49 50
000
SXUS55 KTWC 290115
OSOTWC

WEATHER ROUNDUP FOR SOUTHEAST ARIZONA
NATIONAL WEATHER SERVICE TUCSON AZ
615 PM MST TUE MAR 28 2017

AZZ504>506-514-290215-
LOCATION       SKY/WX    TMP DP  RH WIND       PRES   REMARKS
TUCSON         CLEAR     69  29  22 N15       29.90R
DAVIS-MONTHAN  CLEAR     67  29  24 NW17      29.89R
CHILDRENS PARK N/A      N/A N/A  22 NW11              PIMA CO DEQ
ALVERNON/22ND  N/A       69 N/A N/A NW9               PIMA CO DEQ
CHERRY/GLENN   N/A       72 N/A N/A NW6               PIMA CO DEQ
TANGERINE      N/A       69 N/A N/A NW8               PIMA CO DEQ
CONTL RANCH    N/A       71  28  20 NW11              PIMA CO DEQ
GRANT/1ST      N/A       70  28  21 NW12              PIMA CO DEQ
CRAYCROFT/22ND N/A       69  29  22 N/A               PIMA CO DEQ
GOLFLINKS/KOLB N/A       68  28  22 NW12              PIMA CO DEQ
AJO/12TH       N/A       70  29  22 NW12              PIMA CO DEQ
FAIRGROUNDS    N/A       68 N/A N/A N/A               PIMA CO DEQ
SAGUARO        N/A       69  30  23 W9G16             *SABINO CYN
SAN CARLOS     N/A       65  33  30 NW7G17            *SAN CARLOS
GREEN VALLEY   N/A       68  27  21 W9                PIMA CO DEQ
HORSE CAMP CYN N/A       60  30  32 W16G26            *ARAVAIPA CYN
RINCON MTNS    N/A       41  27  57 W4G18             *NR MANNING CAMP
$$

AZZ509>511-290215-
LOCATION       SKY/WX    TMP DP  RH WIND       PRES   REMARKS
SAFFORD        MOCLDY    63  34  33 NW21G26   29.84S
STRAY HORSE    N/A       34  31  87 N/A               *
TRAIL CABIN    N/A       46  31  55 W8G13             *N OF GRANVILLE
BLACK HILLS    NOT AVBL
DRY LAKE       N/A       37  28  70 NW6G17            *NATANES MTNS
NOON CREEK     N/A       56  27  33 SW3G12            *PINALENO MTNS
COLUMBINE      N/A       32  22  67 NW4G15            *PINALENO MTNS
GUTHRIE        N/A       47  28  48 W17G30            *SW OF GUTHRIE
$$

AZZ502-503-513-290215-
LOCATION       SKY/WX    TMP DP  RH WIND       PRES   REMARKS
NOGALES        CLEAR     64  26  23 NW13G20   29.92R
SELLS          N/A       73  28  19 NE8G15            *
SASABE         N/A       69  29  22 NW9G20            *ALTAR VLY
HOPKINS        N/A       52  26  36 W14G24            *SANTA RITA MTNS
CARR CYN       N/A       54  24  31 NE3G12            *W OF HEREFORD
$$

AZZ507-508-512-290215-
LOCATION       SKY/WX    TMP DP  RH WIND       PRES   REMARKS
SIERRA VISTA   CLEAR     58  25  28 NW16      29.95R
DOUGLAS        CLEAR     60  25  26 NW24      29.91R
EMPIRE MTNS    NOT AVBL
MULESHOE RANCH N/A       60  31  33 NW10G21           *PRESERVE
HEADQUARTERS   NOT AVBL
$$

.............................NOTES.............................
THIS IS AN AUTOMATED COLLECTIVE WITH MINIMAL QUALITY CONTROL.
PIMA CO DEQ SITES HAVE NONSTANDARD WIND SENSOR HEIGHTS.
PIMA CO DEQ SITES DO NOT REPORT WIND GUSTS.
* INDICATES WIND SENSORS LOCATED AT 20 FEET INSTEAD OF 33 FEET.
..............................KEY..............................
SKY/WX - SKY CONDITION/WEATHER
TMP    - TEMPERATURE IN FAHRENHEIT
DP     - DEWPOINT IN FAHRENHEIT
RH     - RELATIVE HUMIDITY IN PERCENT
WIND   - DIRECTION AND SPEED IN MILES PER HOUR (MPH)
VRB    - VARIABLE WIND DIRECTION
PRES   - MEAN SEA LEVEL PRESSURE IN INCHES OF MERCURY
         F - FALLING PRESSURE   R - RISING PRESSURE
         S - STEADY PRESSURE
VSB    - VISIBILITY IN MILES
HX     - HEAT INDEX IN FAHRENHEIT
WCI    - WIND CHILL INDEX IN FAHRENHEIT
N/A    - NOT AVAILABLE
AFB    - AIR FORCE BASE
         DAVIS-MONTHAN IS DAVIS-MONTHAN AIR FORCE BASE
CYN    - CANYON
MTNS   - MOUNTAINS
NCA    - NATIONAL CONSERVATION AREA
NR     - NEAR
VLY    - VALLEY
CONTL  - CONTINENTAL
PIMA CO DEQ - PIMA COUNTY DEPT OF ENVIRONMENTAL QUALITY



USA.gov is the U.S. government's official web portal to all federal, state and local government web resources and services.